Location: Lone Pine Community Mobile Home Park
(42.7367°N, 73.8567°W)
Time: 09:32:43
(UTC+00:00)

Cosmos 1726 Rocket - Pass Details

Date: 29 October 2020
Orbit: 604 x 628 km, 82.5° (Epoch: 23 November)

Event Time Altitude Azimuth Distance (km) Brightness Sun altitude
Rises 22:13:04 0° 179° (S) 2,854 7.2 -4.7°
Reaches altitude 10° 22:15:16 10° 176° (S) 1,958 6.3 -5.1°
Maximum altitude 22:19:34 65° 95° (E) 678 3.5 -5.8°
Drops below altitude 10° 22:23:55 10° 14° (NNE) 1,989 5.9 -6.6°
Sets 22:26:11 0° 12° (NNE) 2,904 6.8 -7.0°
